When you browse on this site, cookies collect data to enhance your experience and personalize the content and advertising you see.
Visit our Privacy Policy to learn more. By continuing to use the site, you agree to this use of cookies and data.
  • In Czech Republic
  • List of Countries
  • For 7 days
  • Water Temperature
  • Satellite Maps
  • Weather Map
  • Weather Widgets
  • user-avatar
    Login

    Hourly Weather Sekondi

    Today, 17 December, Monday

    Time Temperature Precipitation Wind Pressure Humidity
    00:00 +28°C° 0 mm 3 mps 759 mmHg 89%
    01:00 +27°C° 0.3 mm 2 mps 759 mmHg 90%
    02:00 +27°C° 0.3 mm 2 mps 758 mmHg 91%
    03:00 +27°C° 0.3 mm 2 mps 758 mmHg 92%
    04:00 +27°C° 0.3 mm 2 mps 758 mmHg 93%
    05:00 +27°C° 0.3 mm 2 mps 758 mmHg 93%
    06:00 +27°C° 0.3 mm 2 mps 758 mmHg 94%
    07:00 +28°C° 0.1 mm 2 mps 759 mmHg 87%
    08:00 +30°C° 0.1 mm 2 mps 759 mmHg 79%
    09:00 +31°C° 0.1 mm 2 mps 759 mmHg 72%
    10:00 +34°C° 0 mm 2 mps 759 mmHg 66%
    11:00 +35°C° 0 mm 2 mps 759 mmHg 59%
    12:00 +36°C° 0 mm 2 mps 758 mmHg 52%
    13:00 +36°C° 0.1 mm 3 mps 758 mmHg 53%
    14:00 +36°C° 0.1 mm 3 mps 757 mmHg 53%
    15:00 +35°C° 0.1 mm 3 mps 757 mmHg 54%
    16:00 +34°C° 0.1 mm 3 mps 757 mmHg 61%
    17:00 +32°C° 0.1 mm 4 mps 757 mmHg 68%
    18:00 +30°C° 0.1 mm 4 mps 757 mmHg 75%
    19:00 +29°C° 0 mm 4 mps 758 mmHg 78%
    20:00 +29°C° 0 mm 4 mps 758 mmHg 81%
    21:00 +28°C° 0 mm 4 mps 759 mmHg 84%
    22:00 +28°C° 0 mm 4 mps 759 mmHg 85%
    23:00 +28°C° 0 mm 3 mps 759 mmHg 86%

    Tomorrow, 18 December, Tuesday

    Time Temperature Precipitation Wind Pressure Humidity
    00:00 +28°C° 0 mm 3 mps 759 mmHg 88%
    01:00 +28°C° 0 mm 3 mps 758 mmHg 89%
    02:00 +27°C° 0 mm 3 mps 758 mmHg 89%
    03:00 +27°C° 0 mm 3 mps 758 mmHg 90%
    04:00 +27°C° 0 mm 3 mps 758 mmHg 91%
    05:00 +27°C° 0 mm 3 mps 758 mmHg 91%
    06:00 +27°C° 0 mm 3 mps 758 mmHg 91%
    07:00 +28°C° 0 mm 3 mps 758 mmHg 85%
    08:00 +30°C° 0 mm 3 mps 759 mmHg 78%
    09:00 +31°C° 0 mm 3 mps 759 mmHg 71%
    10:00 +33°C° 0 mm 3 mps 759 mmHg 68%
    11:00 +33°C° 0 mm 3 mps 759 mmHg 65%
    12:00 +34°C° 0 mm 3 mps 759 mmHg 62%
    13:00 +34°C° 0.4 mm 4 mps 758 mmHg 63%
    14:00 +34°C° 0.4 mm 4 mps 757 mmHg 64%
    15:00 +34°C° 0.4 mm 4 mps 757 mmHg 65%
    16:00 +32°C° 0.1 mm 4 mps 757 mmHg 70%
    17:00 +30°C° 0.1 mm 3 mps 757 mmHg 75%
    18:00 +29°C° 0.1 mm 3 mps 758 mmHg 80%
    19:00 +29°C° 0.1 mm 3 mps 758 mmHg 83%
    20:00 +28°C° 0.1 mm 3 mps 759 mmHg 85%
    21:00 +28°C° 0.1 mm 3 mps 759 mmHg 88%
    22:00 +28°C° 0 mm 3 mps 759 mmHg 89%
    23:00 +27°C° 0 mm 3 mps 759 mmHg 90%

    Day after tomorrow, 19 December, Wednesday

    Time Temperature Precipitation Wind Pressure Humidity
    00:00 +27°C° 0 mm 3 mps 759 mmHg 91%
    01:00 +27°C° 0 mm 3 mps 758 mmHg 91%
    02:00 +27°C° 0 mm 3 mps 758 mmHg 92%
    03:00 +27°C° 0 mm 3 mps 757 mmHg 93%
    04:00 +27°C° 0.5 mm 3 mps 758 mmHg 93%
    05:00 +27°C° 0.5 mm 3 mps 758 mmHg 93%
    06:00 +27°C° 0.5 mm 3 mps 758 mmHg 94%
    07:00 +28°C° 0.4 mm 3 mps 759 mmHg 87%
    08:00 +29°C° 0.4 mm 3 mps 759 mmHg 80%
    09:00 +32°C° 0.4 mm 4 mps 760 mmHg 73%
    10:00 +33°C° 0.3 mm 4 mps 759 mmHg 67%
    11:00 +34°C° 0.3 mm 4 mps 759 mmHg 61%
    12:00 +35°C° 0.3 mm 4 mps 758 mmHg 54%
    13:00 +35°C° 0 mm 3 mps 758 mmHg 55%
    14:00 +35°C° 0 mm 3 mps 757 mmHg 55%
    15:00 +35°C° 0 mm 3 mps 756 mmHg 55%
    16:00 +33°C° 0.2 mm 3 mps 757 mmHg 63%
    17:00 +31°C° 0.2 mm 3 mps 757 mmHg 70%
    18:00 +29°C° 0.2 mm 3 mps 757 mmHg 78%
    19:00 +29°C° 0 mm 3 mps 758 mmHg 80%
    20:00 +28°C° 0 mm 3 mps 758 mmHg 83%
    21:00 +28°C° 0 mm 3 mps 759 mmHg 85%
    22:00 +28°C° 0 mm 3 mps 759 mmHg 86%
    23:00 +28°C° 0 mm 3 mps 758 mmHg 88%

    20 December, Thursday

    Time Temperature Precipitation Wind Pressure Humidity
    00:00 +27°C° 0 mm 3 mps 758 mmHg 89%
    01:00 +27°C° 0 mm 3 mps 758 mmHg 90%
    02:00 +27°C° 0 mm 3 mps 757 mmHg 90%
    03:00 +27°C° 0 mm 3 mps 757 mmHg 91%
    04:00 +27°C° 0 mm 3 mps 757 mmHg 91%
    05:00 +27°C° 0 mm 3 mps 757 mmHg 92%
    06:00 +27°C° 0 mm 3 mps 757 mmHg 92%
    07:00 +28°C° 0 mm 3 mps 758 mmHg 85%
    08:00 +30°C° 0 mm 3 mps 758 mmHg 79%
    09:00 +31°C° 0 mm 3 mps 759 mmHg 72%
    10:00 +33°C° 0.2 mm 3 mps 759 mmHg 68%
    11:00 +34°C° 0.2 mm 3 mps 758 mmHg 63%
    12:00 +35°C° 0.2 mm 3 mps 758 mmHg 59%
    13:00 +35°C° 0.4 mm 3 mps 757 mmHg 62%
    14:00 +34°C° 0.4 mm 3 mps 757 mmHg 64%
    15:00 +33°C° 0.4 mm 3 mps 756 mmHg 67%
    16:00 +31°C° 0.5 mm 3 mps 756 mmHg 73%
    17:00 +30°C° 0.5 mm 3 mps 757 mmHg 79%
    18:00 +28°C° 0.5 mm 3 mps 757 mmHg 85%
    19:00 +28°C° 0.1 mm 3 mps 757 mmHg 87%
    20:00 +28°C° 0.1 mm 3 mps 758 mmHg 88%
    21:00 +27°C° 0.1 mm 3 mps 759 mmHg 90%
    22:00 +27°C° 0.1 mm 3 mps 758 mmHg 91%
    23:00 +27°C° 0.1 mm 3 mps 758 mmHg 91%

    21 December, Friday

    Time Temperature Precipitation Wind Pressure Humidity
    00:00 +27°C° 0.1 mm 3 mps 758 mmHg 92%
    01:00 +27°C° 0.1 mm 3 mps 757 mmHg 92%
    02:00 +27°C° 0.1 mm 3 mps 757 mmHg 93%
    03:00 +27°C° 0.1 mm 3 mps 756 mmHg 94%
    04:00 +27°C° 0.1 mm 3 mps 757 mmHg 94%
    05:00 +26°C° 0.1 mm 3 mps 757 mmHg 94%
    06:00 +26°C° 0.1 mm 3 mps 757 mmHg 94%
    07:00 +28°C° 0 mm 3 mps 758 mmHg 88%
    08:00 +29°C° 0 mm 3 mps 758 mmHg 82%
    09:00 +31°C° 0 mm 3 mps 759 mmHg 76%
    10:00 +31°C° 0.8 mm 3 mps 758 mmHg 72%
    11:00 +33°C° 0.8 mm 3 mps 758 mmHg 69%
    12:00 +34°C° 0.8 mm 2 mps 757 mmHg 65%
    13:00 +34°C° 0.4 mm 3 mps 757 mmHg 65%
    14:00 +34°C° 0.4 mm 3 mps 756 mmHg 65%
    15:00 +33°C° 0.4 mm 3 mps 756 mmHg 66%
    16:00 +31°C° 0.3 mm 3 mps 756 mmHg 71%
    17:00 +30°C° 0.3 mm 3 mps 756 mmHg 77%
    18:00 +29°C° 0.3 mm 3 mps 756 mmHg 83%
    19:00 +28°C° 0 mm 3 mps 757 mmHg 84%
    20:00 +28°C° 0 mm 3 mps 757 mmHg 86%
    21:00 +27°C° 0 mm 3 mps 758 mmHg 88%
    22:00 +27°C° 0 mm 3 mps 758 mmHg 88%
    23:00 +27°C° 0 mm 3 mps 758 mmHg 89%

    22 December, Saturday

    Time Temperature Precipitation Wind Pressure Humidity
    00:00 +27°C° 0 mm 3 mps 757 mmHg 90%
    01:00 +27°C° 0 mm 3 mps 757 mmHg 90%
    02:00 +27°C° 0 mm 3 mps 757 mmHg 90%
    03:00 +27°C° 0 mm 2 mps 756 mmHg 90%
    04:00 +27°C° 0 mm 3 mps 757 mmHg 90%
    05:00 +27°C° 0 mm 3 mps 757 mmHg 90%
    06:00 +27°C° 0 mm 3 mps 757 mmHg 90%
    07:00 +28°C° 0 mm 3 mps 758 mmHg 85%
    08:00 +29°C° 0 mm 3 mps 758 mmHg 79%
    09:00 +31°C° 0 mm 3 mps 758 mmHg 73%
    10:00 +33°C° 0.3 mm 3 mps 758 mmHg 69%
    11:00 +34°C° 0.3 mm 3 mps 758 mmHg 65%
    12:00 +35°C° 0.3 mm 3 mps 757 mmHg 61%
    13:00 +34°C° 0.5 mm 3 mps 757 mmHg 63%
    14:00 +33°C° 0.5 mm 3 mps 756 mmHg 65%
    15:00 +33°C° 0.5 mm 3 mps 756 mmHg 67%
    16:00 +31°C° 0.2 mm 3 mps 756 mmHg 73%
    17:00 +30°C° 0.2 mm 3 mps 756 mmHg 78%
    18:00 +29°C° 0.2 mm 3 mps 756 mmHg 83%
    19:00 +28°C° 0 mm 3 mps 757 mmHg 85%
    20:00 +28°C° 0 mm 3 mps 757 mmHg 87%
    21:00 +27°C° 0 mm 3 mps 758 mmHg 89%
    22:00 +27°C° 0 mm 3 mps 757 mmHg 90%
    23:00 +27°C° 0 mm 3 mps 757 mmHg 90%
    Show more